User: anonymous   Login
Location: Unspecified
(0.0000°N, 0.0000°E)
Time: 19:51:29
(UTC+00:00)
Language:

SAUDISAT 4 - Orbit

View from above orbital plane
View from above orbital plane
View from above satellite
View from above satellite

Ground track
Ground track

The orbit data is extracted from the following two-line orbital elements,

1 40016U 14033G   17268.90433226 +.00000066 +00000-0 +17152-4 0  9997
2 40016 097.8468 153.4457 0047629 324.3471 035.4559 14.75136359175981
Epoch (UTC): 25 September 2017 21:42:14
Eccentricity: 0.0047629
inclination: 97.8468°
perigee height: 611 km
apogee height: 678 km
right ascension of ascending node: 153.4457°
argument of perigee: 324.3471°
revolutions per day: 14.75136359
mean anomaly at epoch: 35.4559°
orbit number at epoch: 17598

The dashed part of the orbit path shows where the satellite is in the earth's shadow,  

DLR